Location: Caltech
(34.1382°N, 118.1253°W)
Time: 22:56:46
(UTC-07:00)

MaSat-1 - Visible Passes

Search period start: 29 September 2014 00:00
Search period end: 09 October 2014 00:00
Orbit: 277 x 692 km, 69.4° (Epoch: 29 September)

Date Brightness Start Highest point End Pass type
(mag) Time Alt. Az. Time Alt. Az. Time Alt. Az.
29 Sep ? 05:03:11 10° SSE 05:06:44 20° ESE 05:10:14 10° ENE visible
30 Sep ? 04:38:33 10° SE 04:41:22 15° ESE 04:44:09 10° ENE visible
30 Sep ? 06:12:44 10° SW 06:17:29 50° WNW 06:22:06 10° N visible
01 Oct ? 04:14:07 10° ESE 04:15:37 11° E 04:17:08 10° E visible
01 Oct ? 05:46:44 10° SSW 05:51:35 66° WNW 05:56:17 10° NNE visible
02 Oct ? 05:21:21 16° SSW 05:25:19 87° WNW 05:30:01 10° NNE visible
03 Oct ? 04:56:52 38° S 04:58:39 70° ESE 05:03:18 10° NNE visible
04 Oct ? 04:31:45 50° ESE 04:31:45 50° ESE 04:36:06 10° NE visible
04 Oct ? 06:06:03 13° W 06:08:11 16° WNW 06:11:05 10° NNW visible
05 Oct ? 04:06:01 26° ENE 04:06:01 26° ENE 04:08:26 10° NE visible
05 Oct ? 05:40:17 21° WNW 05:40:35 21° WNW 05:44:06 10° N visible
06 Oct ? 03:39:44 12° NE 03:39:44 12° NE 03:40:13 10° NE visible
06 Oct ? 05:13:58 24° NNW 05:13:58 24° NNW 05:16:33 10° N visible
07 Oct ? 04:47:06 19° N 04:47:06 19° N 04:48:29 10° N visible
08 Oct ? 04:19:43 11° NNE 04:19:43 11° NNE 04:19:57 10° NNE visible
